Find SERT 2

NORAD ID: 4327 Int'l Des: 1970-009 Owner: LERC Country: US operational
LEOCIRCULARRETROGRADESSO

Live Position

Loading 3D Globe...

About SERT 2

Description loading...

Upcoming Passes

Passes for default location (London). Set your location on the main map for personalized predictions.

Altitude History

Loading altitude history...

Two-Line Element Set

1 04327U 70009A 26106.69556627 .00000013 00000-0 74717-4 0 9997
2 04327 99.2807 47.7200 0005786 70.8249 353.3756 13.58734501785053
Epoch: Apr 16, 2026 • Age: 15 hours

Current Status

Altitude 1043.0 km
Velocity 7.33 km/s
Sub-Earth Point 27.05°N, 81.36°W
Type other

Most Searched